| time (UTC) | temp F | wind direction | speed MPH | gust MPH | rain 1hr in | rain 24hr in | rain mn in | humidity % | barometer mb |
| 20260901054848 | 81 | 130 | 0.0 | 1.0 | 0.00 | 0.00 | 0.00 | 58 | 1017.4 |
| 20260901054348 | 81 | 116 | 3.0 | 4.0 | 0.00 | 0.00 | 0.00 | 58 | 1017.3 |
| 20260901053853 | 81 | 123 | 1.0 | 2.0 | 0.00 | 0.00 | 0.00 | 59 | 1017.4 |
| 20260901053351 | 81 | 88 | 1.0 | 2.0 | 0.00 | 0.00 | 0.00 | 58 | 1017.4 |
| 20260901052848 | 81 | 112 | 2.0 | 4.0 | 0.00 | 0.00 | 0.00 | 58 | 1017.4 |
| 20260901052348 | 82 | 58 | 1.0 | 1.0 | 0.00 | 0.00 | 0.00 | 58 | 1017.3 |
| 20260901051848 | 82 | 94 | 2.0 | 2.0 | 0.00 | 0.00 | 0.00 | 57 | 1017.2 |
| 20260901051348 | 82 | 94 | 1.0 | 2.0 | 0.00 | 0.00 | 0.00 | 57 | 1017.2 |
| 20260901050849 | 83 | 86 | 1.0 | 2.0 | 0.00 | 0.00 | 0.00 | 56 | 1017.2 |
| 20260901050349 | 83 | 360 | 0.0 | 0.0 | 0.00 | 0.00 | 0.00 | 56 | 1017.2 |
| 20260901045849 | 83 | 146 | 0.0 | 2.0 | 0.00 | 0.00 | 0.00 | 55 | 1017.2 |
| 20260901045348 | 83 | 113 | 0.0 | 2.0 | 0.00 | 0.00 | 0.00 | 54 | 1017.2 |
| 20260901044848 | 83 | 123 | 2.0 | 4.0 | 0.00 | 0.00 | 0.00 | 54 | 1017.2 |
| 20260901044348 | 83 | 130 | 2.0 | 4.0 | 0.00 | 0.00 | 0.00 | 54 | 1017.2 |
| 20260901043848 | 84 | 115 | 2.0 | 5.0 | 0.00 | 0.00 | 0.00 | 54 | 1017.2 |
| 20260901043348 | 84 | 100 | 2.0 | 4.0 | 0.00 | 0.00 | 0.00 | 53 | 1017.2 |
| 20260901042848 | 84 | 149 | 1.0 | 2.0 | 0.00 | 0.00 | 0.00 | 53 | 1017.2 |
| 20260901042348 | 85 | 136 | 1.0 | 3.0 | 0.00 | 0.00 | 0.00 | 53 | 1017.1 |
| 20260901041848 | 85 | 145 | 3.0 | 5.0 | 0.00 | 0.00 | 0.00 | 52 | 1017.1 |
| 20260901041348 | 85 | 126 | 2.0 | 3.0 | 0.00 | 0.00 | 0.00 | 52 | 1017.2 |
| 20260901040848 | 85 | 141 | 1.0 | 2.0 | 0.00 | 0.00 | 0.00 | 52 | 1017.1 |
| 20260901040348 | 85 | 150 | 2.0 | 4.0 | 0.00 | 0.00 | 0.00 | 51 | 1017.1 |
| 20260901035848 | 85 | 137 | 2.0 | 3.0 | 0.00 | 0.00 | 0.00 | 51 | 1017.1 |
| 20260901035348 | 85 | 145 | 3.0 | 6.0 | 0.00 | 0.00 | 0.00 | 51 | 1017.1 |
| 20260901034848 | 85 | 148 | 4.0 | 6.0 | 0.00 | 0.00 | 0.00 | 51 | 1017.1 |
| 20260901034348 | 85 | 155 | 2.0 | 4.0 | 0.00 | 0.00 | 0.00 | 51 | 1017.1 |
| 20260901033849 | 85 | 139 | 3.0 | 6.0 | 0.00 | 0.00 | 0.00 | 51 | 1017.1 |
| 20260901032905 | 85 | 133 | 4.0 | 6.0 | 0.00 | 0.00 | 0.00 | 51 | 1017.0 |
| 20260901032349 | 85 | 136 | 4.0 | 7.0 | 0.00 | 0.00 | 0.00 | 52 | 1017.0 |
| 20260901031848 | 85 | 134 | 3.0 | 5.0 | 0.00 | 0.00 | 0.00 | 53 | 1017.0 |
| 20260901031348 | 85 | 92 | 2.0 | 3.0 | 0.00 | 0.00 | 0.00 | 53 | 1017.0 |
| 20260901030848 | 85 | 96 | 2.0 | 3.0 | 0.00 | 0.00 | 0.00 | 53 | 1017.0 |
| 20260901030348 | 85 | 82 | 2.0 | 2.0 | 0.00 | 0.00 | 0.00 | 53 | 1017.0 |
| 20260901025848 | 85 | 93 | 2.0 | 4.0 | 0.00 | 0.00 | 0.00 | 53 | 1017.0 |
| 20260901025348 | 85 | 84 | 2.0 | 3.0 | 0.00 | 0.00 | 0.00 | 53 | 1016.9 |
| 20260901024848 | 85 | 92 | 2.0 | 4.0 | 0.00 | 0.00 | 0.00 | 53 | 1016.9 |
| 20260901024348 | 85 | 91 | 2.0 | 4.0 | 0.00 | 0.00 | 0.00 | 53 | 1016.8 |
| 20260901023848 | 85 | 98 | 2.0 | 3.0 | 0.00 | 0.00 | 0.00 | 53 | 1016.8 |
| 20260901023348 | 85 | 85 | 2.0 | 3.0 | 0.00 | 0.00 | 0.00 | 54 | 1016.7 |
| 20260901022848 | 85 | 89 | 2.0 | 3.0 | 0.00 | 0.00 | 0.00 | 53 | 1016.7 |
| 20260901022349 | 85 | 84 | 2.0 | 2.0 | 0.00 | 0.00 | 0.00 | 53 | 1016.5 |
| 20260901021848 | 85 | 102 | 2.0 | 4.0 | 0.00 | 0.00 | 0.00 | 53 | 1016.5 |
| 20260901021348 | 85 | 88 | 2.0 | 3.0 | 0.00 | 0.00 | 0.00 | 53 | 1016.4 |
| 20260901020848 | 86 | 74 | 1.0 | 2.0 | 0.00 | 0.00 | 0.00 | 53 | 1016.3 |
| 20260901020350 | 86 | 81 | 1.0 | 2.0 | 0.00 | 0.00 | 0.00 | 52 | 1016.3 |
| 20260901015849 | 86 | 102 | 1.0 | 3.0 | 0.00 | 0.00 | 0.00 | 51 | 1016.2 |
| 20260901015349 | 86 | 92 | 3.0 | 4.0 | 0.00 | 0.00 | 0.00 | 51 | 1016.1 |
| 20260901014849 | 87 | 79 | 1.0 | 2.0 | 0.00 | 0.00 | 0.00 | 51 | 1016.1 |
| 20260901014349 | 87 | 89 | 2.0 | 2.0 | 0.00 | 0.00 | 0.00 | 50 | 1016.0 |
| 20260901013848 | 87 | 67 | 2.0 | 3.0 | 0.00 | 0.00 | 0.00 | 50 | 1015.9 |
| 20260901013348 | 87 | 68 | 2.0 | 3.0 | 0.00 | 0.00 | 0.00 | 49 | 1015.9 |
| 20260901012848 | 88 | 86 | 1.0 | 2.0 | 0.00 | 0.00 | 0.00 | 49 | 1015.9 |
| 20260901012349 | 88 | 73 | 2.0 | 3.0 | 0.00 | 0.00 | 0.00 | 48 | 1015.8 |
| 20260901011848 | 88 | 97 | 1.0 | 2.0 | 0.00 | 0.00 | 0.00 | 47 | 1015.8 |
| 20260901011348 | 88 | 99 | 1.0 | 2.0 | 0.00 | 0.00 | 0.00 | 47 | 1015.7 |
| 20260901010848 | 89 | 75 | 2.0 | 3.0 | 0.00 | 0.00 | 0.00 | 48 | 1015.7 |
| 20260901010350 | 89 | 76 | 2.0 | 2.0 | 0.00 | 0.00 | 0.00 | 47 | 1015.7 |
| 20260901005848 | 89 | 59 | 2.0 | 2.0 | 0.00 | 0.00 | 0.00 | 46 | 1015.7 |
| 20260901005348 | 90 | 107 | 3.0 | 6.0 | 0.00 | 0.00 | 0.00 | 46 | 1015.6 |
| 20260901004850 | 90 | 81 | 2.0 | 2.0 | 0.00 | 0.00 | 0.00 | 45 | 1015.6 |
| 20260901004349 | 90 | 37 | 1.0 | 2.0 | 0.00 | 0.00 | 0.00 | 45 | 1015.5 |
| 20260901003849 | 91 | 92 | 1.0 | 2.0 | 0.00 | 0.00 | 0.00 | 45 | 1015.5 |
| 20260901003349 | 91 | 79 | 2.0 | 2.0 | 0.00 | 0.00 | 0.00 | 44 | 1015.5 |
| 20260901002849 | 92 | 78 | 1.0 | 2.0 | 0.00 | 0.00 | 0.00 | 43 | 1015.5 |
| 20260901002349 | 93 | 69 | 2.0 | 3.0 | 0.00 | 0.00 | 0.00 | 42 | 1015.4 |
| 20260901001849 | 94 | 121 | 2.0 | 3.0 | 0.00 | 0.00 | 0.00 | 41 | 1015.4 |
| 20260901001348 | 94 | 92 | 3.0 | 4.0 | 0.00 | 0.00 | 0.00 | 40 | 1015.4 |
| 20260901000848 | 95 | 105 | 4.0 | 5.0 | 0.00 | 0.00 | 0.00 | 38 | 1015.4 |
| 20260901000350 | 96 | 134 | 4.0 | 6.0 | 0.00 | 0.00 | 0.00 | 37 | 1015.4 |
| 20260831235848 | 96 | 123 | 3.0 | 5.0 | 0.00 | 0.00 | 0.00 | 36 | 1015.4 |
| 20260831235348 | 97 | 122 | 2.0 | 2.0 | 0.00 | 0.00 | 0.00 | 35 | 1015.4 |
| 20260831234848 | 97 | 117 | 2.0 | 3.0 | 0.00 | 0.00 | 0.00 | 34 | 1015.4 |
| 20260831234348 | 98 | 112 | 2.0 | 3.0 | 0.00 | 0.00 | 0.00 | 34 | 1015.4 |
| 20260831233848 | 98 | 151 | 2.0 | 3.0 | 0.00 | 0.00 | 0.00 | 32 | 1015.3 |
| 20260831233349 | 98 | 153 | 2.0 | 3.0 | 0.00 | 0.00 | 0.00 | 33 | 1015.3 |
| 20260831232848 | 98 | 199 | 2.0 | 4.0 | 0.00 | 0.00 | 0.00 | 32 | 1015.3 |
| 20260831232349 | 99 | 180 | 2.0 | 3.0 | 0.00 | 0.00 | 0.00 | 31 | 1015.3 |
| 20260831231849 | 99 | 159 | 3.0 | 5.0 | 0.00 | 0.00 | 0.00 | 31 | 1015.3 |
| 20260831231348 | 98 | 163 | 3.0 | 4.0 | 0.00 | 0.00 | 0.00 | 31 | 1015.3 |
| 20260831230848 | 99 | 161 | 4.0 | 6.0 | 0.00 | 0.00 | 0.00 | 31 | 1015.4 |
| 20260831230349 | 99 | 155 | 4.0 | 7.0 | 0.00 | 0.00 | 0.00 | 31 | 1015.4 |
| 20260831225849 | 99 | 173 | 4.0 | 6.0 | 0.00 | 0.00 | 0.00 | 30 | 1015.4 |
| 20260831225350 | 99 | 182 | 2.0 | 3.0 | 0.00 | 0.00 | 0.00 | 31 | 1015.4 |
| 20260831224848 | 100 | 241 | 2.0 | 4.0 | 0.00 | 0.00 | 0.00 | 30 | 1015.4 |
| 20260831224348 | 100 | 217 | 2.0 | 2.0 | 0.00 | 0.00 | 0.00 | 30 | 1015.4 |
| 20260831223848 | 99 | 225 | 3.0 | 6.0 | 0.00 | 0.00 | 0.00 | 31 | 1015.4 |
| 20260831223348 | 100 | 194 | 4.0 | 6.0 | 0.00 | 0.00 | 0.00 | 31 | 1015.4 |
| 20260831222848 | 100 | 218 | 4.0 | 6.0 | 0.00 | 0.00 | 0.00 | 30 | 1015.5 |
| 20260831222348 | 100 | 337 | 1.0 | 1.0 | 0.00 | 0.00 | 0.00 | 30 | 1015.5 |
| 20260831221848 | 100 | 187 | 3.0 | 6.0 | 0.00 | 0.00 | 0.00 | 31 | 1015.5 |
| 20260831221348 | 100 | 236 | 4.0 | 5.0 | 0.00 | 0.00 | 0.00 | 31 | 1015.5 |
| 20260831220849 | 100 | 210 | 3.0 | 6.0 | 0.00 | 0.00 | 0.00 | 30 | 1015.6 |
| 20260831220348 | 100 | 213 | 5.0 | 8.0 | 0.00 | 0.00 | 0.00 | 31 | 1015.5 |
| 20260831215849 | 100 | 149 | 3.0 | 4.0 | 0.00 | 0.00 | 0.00 | 30 | 1015.6 |
| 20260831215350 | 100 | 124 | 2.0 | 4.0 | 0.00 | 0.00 | 0.00 | 30 | 1015.6 |
| 20260831214848 | 99 | 269 | 3.0 | 6.0 | 0.00 | 0.00 | 0.00 | 30 | 1015.6 |
| 20260831214349 | 99 | 129 | 4.0 | 7.0 | 0.00 | 0.00 | 0.00 | 30 | 1015.6 |
| 20260831213848 | 98 | 39 | 3.0 | 5.0 | 0.00 | 0.00 | 0.00 | 31 | 1015.6 |
| 20260831213348 | 98 | 192 | 3.0 | 5.0 | 0.00 | 0.00 | 0.00 | 31 | 1015.6 |
| 20260831212850 | 99 | 183 | 1.0 | 2.0 | 0.00 | 0.00 | 0.00 | 30 | 1015.6 |
| 20260831212348 | 100 | 163 | 4.0 | 7.0 | 0.00 | 0.00 | 0.00 | 30 | 1015.7 |
| 20260831211848 | 100 | 276 | 3.0 | 5.0 | 0.00 | 0.00 | 0.00 | 30 | 1015.6 |
| 20260831211350 | 100 | 204 | 6.0 | 9.0 | 0.00 | 0.00 | 0.00 | 30 | 1015.8 |
| 20260831210848 | 100 | 206 | 4.0 | 5.0 | 0.00 | 0.00 | 0.00 | 30 | 1015.7 |
| 20260831210349 | 100 | 293 | 3.0 | 6.0 | 0.00 | 0.00 | 0.00 | 30 | 1015.7 |
| 20260831205848 | 100 | 170 | 4.0 | 6.0 | 0.00 | 0.00 | 0.00 | 30 | 1015.8 |
| 20260831205348 | 100 | 154 | 6.0 | 9.0 | 0.00 | 0.00 | 0.00 | 30 | 1015.9 |
| 20260831204848 | 100 | 219 | 4.0 | 6.0 | 0.00 | 0.00 | 0.00 | 30 | 1015.9 |
| 20260831204349 | 99 | 206 | 3.0 | 6.0 | 0.00 | 0.00 | 0.00 | 31 | 1016.0 |
| 20260831203849 | 99 | 198 | 5.0 | 6.0 | 0.00 | 0.00 | 0.00 | 30 | 1016.1 |
| 20260831203349 | 99 | 195 | 6.0 | 9.0 | 0.00 | 0.00 | 0.00 | 31 | 1016.1 |
| 20260831202848 | 99 | 165 | 5.0 | 7.0 | 0.00 | 0.00 | 0.00 | 30 | 1016.2 |
| 20260831202348 | 98 | 149 | 3.0 | 5.0 | 0.00 | 0.00 | 0.00 | 31 | 1016.2 |
| 20260831201850 | 98 | 139 | 4.0 | 5.0 | 0.00 | 0.00 | 0.00 | 32 | 1016.3 |
| 20260831201349 | 99 | 137 | 4.0 | 5.0 | 0.00 | 0.00 | 0.00 | 31 | 1016.3 |
| 20260831200849 | 99 | 139 | 4.0 | 7.0 | 0.00 | 0.00 | 0.00 | 31 | 1016.4 |
| 20260831200348 | 100 | 188 | 5.0 | 7.0 | 0.00 | 0.00 | 0.00 | 30 | 1016.5 |
| 20260831195848 | 100 | 216 | 7.0 | 11.0 | 0.00 | 0.00 | 0.00 | 30 | 1016.5 |
| 20260831195348 | 99 | 229 | 2.0 | 5.0 | 0.00 | 0.00 | 0.00 | 32 | 1016.4 |
| 20260831194849 | 99 | 236 | 4.0 | 7.0 | 0.00 | 0.00 | 0.00 | 31 | 1016.5 |
| 20260831194349 | 99 | 206 | 5.0 | 8.0 | 0.00 | 0.00 | 0.00 | 31 | 1016.7 |
| 20260831193848 | 99 | 141 | 4.0 | 6.0 | 0.00 | 0.00 | 0.00 | 31 | 1016.7 |
| 20260831193351 | 99 | 211 | 3.0 | 7.0 | 0.00 | 0.00 | 0.00 | 30 | 1016.7 |
| 20260831192849 | 98 | 173 | 4.0 | 8.0 | 0.00 | 0.00 | 0.00 | 32 | 1016.7 |
| 20260831192348 | 98 | 151 | 1.0 | 2.0 | 0.00 | 0.00 | 0.00 | 33 | 1016.8 |
| 20260831191851 | 98 | 202 | 2.0 | 3.0 | 0.00 | 0.00 | 0.00 | 33 | 1016.9 |
| 20260831191348 | 99 | 239 | 3.0 | 6.0 | 0.00 | 0.00 | 0.00 | 32 | 1017.0 |
| 20260831190848 | 98 | 264 | 3.0 | 5.0 | 0.00 | 0.00 | 0.00 | 33 | 1017.0 |
| 20260831190348 | 98 | 294 | 6.0 | 11.0 | 0.00 | 0.00 | 0.00 | 33 | 1017.1 |
| 20260831185848 | 98 | 238 | 3.0 | 6.0 | 0.00 | 0.00 | 0.00 | 33 | 1017.1 |
| 20260831185349 | 98 | 205 | 6.0 | 8.0 | 0.00 | 0.00 | 0.00 | 33 | 1017.1 |
| 20260831184848 | 98 | 302 | 6.0 | 9.0 | 0.00 | 0.00 | 0.00 | 33 | 1017.1 |
| 20260831184351 | 98 | 291 | 4.0 | 5.0 | 0.00 | 0.00 | 0.00 | 33 | 1017.2 |
| 20260831183849 | 98 | 301 | 4.0 | 7.0 | 0.00 | 0.00 | 0.00 | 33 | 1017.2 |
| 20260831183348 | 98 | 296 | 4.0 | 6.0 | 0.00 | 0.00 | 0.00 | 33 | 1017.3 |
| 20260831182848 | 98 | 295 | 2.0 | 3.0 | 0.00 | 0.00 | 0.00 | 33 | 1017.4 |
| 20260831182349 | 98 | 268 | 3.0 | 6.0 | 0.00 | 0.00 | 0.00 | 34 | 1017.4 |
| 20260831181848 | 98 | 224 | 4.0 | 9.0 | 0.00 | 0.00 | 0.00 | 33 | 1017.4 |
| 20260831181348 | 98 | 227 | 2.0 | 4.0 | 0.00 | 0.00 | 0.00 | 33 | 1017.5 |
| 20260831180849 | 98 | 281 | 5.0 | 6.0 | 0.00 | 0.00 | 0.00 | 33 | 1017.6 |
| 20260831180349 | 98 | 220 | 4.0 | 10.0 | 0.00 | 0.00 | 0.00 | 33 | 1017.6 |
| 20260831175848 | 98 | 286 | 5.0 | 9.0 | 0.00 | 0.00 | 0.00 | 32 | 1017.7 |
| 20260831175348 | 97 | 269 | 4.0 | 9.0 | 0.00 | 0.00 | 0.00 | 34 | 1017.7 |
| 20260831174851 | 97 | 205 | 4.0 | 7.0 | 0.00 | 0.00 | 0.00 | 35 | 1017.7 |
| 20260831174348 | 96 | 290 | 3.0 | 4.0 | 0.00 | 0.00 | 0.00 | 35 | 1017.8 |
| 20260831173848 | 96 | 281 | 6.0 | 8.0 | 0.00 | 0.00 | 0.00 | 35 | 1017.8 |
| 20260831173349 | 96 | 293 | 6.0 | 10.0 | 0.00 | 0.00 | 0.00 | 35 | 1017.9 |
| 20260831172849 | 96 | 239 | 3.0 | 4.0 | 0.00 | 0.00 | 0.00 | 36 | 1017.9 |
| 20260831172348 | 97 | 276 | 2.0 | 5.0 | 0.00 | 0.00 | 0.00 | 35 | 1018.0 |
| 20260831171848 | 97 | 226 | 5.0 | 8.0 | 0.00 | 0.00 | 0.00 | 35 | 1018.1 |
| 20260831171348 | 97 | 253 | 5.0 | 8.0 | 0.00 | 0.00 | 0.00 | 35 | 1018.1 |
| 20260831170848 | 96 | 258 | 5.0 | 8.0 | 0.00 | 0.00 | 0.00 | 36 | 1018.1 |
| 20260831170349 | 96 | 306 | 5.0 | 6.0 | 0.00 | 0.00 | 0.00 | 37 | 1018.2 |
| 20260831165848 | 96 | 276 | 3.0 | 5.0 | 0.00 | 0.00 | 0.00 | 38 | 1018.3 |
| 20260831165348 | 96 | 275 | 2.0 | 4.0 | 0.00 | 0.00 | 0.00 | 38 | 1018.3 |
| 20260831164850 | 95 | 211 | 7.0 | 12.0 | 0.00 | 0.00 | 0.00 | 39 | 1018.3 |
| 20260831164349 | 95 | 200 | 3.0 | 6.0 | 0.00 | 0.00 | 0.00 | 40 | 1018.3 |
| 20260831163848 | 94 | 273 | 5.0 | 8.0 | 0.00 | 0.00 | 0.00 | 41 | 1018.5 |
| 20260831163349 | 94 | 237 | 4.0 | 5.0 | 0.00 | 0.00 | 0.00 | 42 | 1018.5 |
| 20260831162848 | 94 | 245 | 4.0 | 6.0 | 0.00 | 0.00 | 0.00 | 44 | 1018.5 |
| 20260831162348 | 94 | 206 | 6.0 | 9.0 | 0.00 | 0.00 | 0.00 | 44 | 1018.4 |
| 20260831161848 | 93 | 250 | 4.0 | 6.0 | 0.00 | 0.00 | 0.00 | 44 | 1018.5 |
| 20260831161348 | 93 | 313 | 6.0 | 7.0 | 0.00 | 0.00 | 0.00 | 45 | 1018.4 |
| 20260831160848 | 92 | 285 | 7.0 | 10.0 | 0.00 | 0.00 | 0.00 | 45 | 1018.5 |
| 20260831160349 | 92 | 207 | 3.0 | 5.0 | 0.00 | 0.00 | 0.00 | 47 | 1018.5 |
| 20260831155848 | 91 | 216 | 5.0 | 8.0 | 0.00 | 0.00 | 0.00 | 47 | 1018.6 |
| 20260831155349 | 91 | 197 | 3.0 | 7.0 | 0.00 | 0.00 | 0.00 | 48 | 1018.6 |
| 20260831154848 | 91 | 223 | 4.0 | 7.0 | 0.00 | 0.00 | 0.00 | 48 | 1018.6 |
| 20260831154349 | 90 | 224 | 6.0 | 8.0 | 0.00 | 0.00 | 0.00 | 48 | 1018.6 |
| 20260831153848 | 90 | 210 | 4.0 | 5.0 | 0.00 | 0.00 | 0.00 | 50 | 1018.6 |
| 20260831153348 | 89 | 247 | 3.0 | 5.0 | 0.00 | 0.00 | 0.00 | 50 | 1018.6 |
| 20260831152848 | 89 | 234 | 3.0 | 6.0 | 0.00 | 0.00 | 0.00 | 50 | 1018.6 |
| 20260831152349 | 89 | 228 | 2.0 | 5.0 | 0.00 | 0.00 | 0.00 | 50 | 1018.6 |
| 20260831151848 | 88 | 184 | 5.0 | 8.0 | 0.00 | 0.00 | 0.00 | 51 | 1018.6 |
| 20260831151348 | 88 | 199 | 4.0 | 6.0 | 0.00 | 0.00 | 0.00 | 52 | 1018.6 |
| 20260831150848 | 87 | 288 | 4.0 | 6.0 | 0.00 | 0.00 | 0.00 | 52 | 1018.6 |
| 20260831150348 | 87 | 212 | 2.0 | 6.0 | 0.00 | 0.00 | 0.00 | 52 | 1018.5 |
| 20260831145848 | 87 | 241 | 4.0 | 7.0 | 0.00 | 0.00 | 0.00 | 53 | 1018.5 |
| 20260831145348 | 87 | 234 | 5.0 | 7.0 | 0.00 | 0.00 | 0.00 | 52 | 1018.5 |
| 20260831144848 | 87 | 211 | 5.0 | 8.0 | 0.00 | 0.00 | 0.00 | 53 | 1018.5 |
| 20260831144349 | 86 | 237 | 5.0 | 7.0 | 0.00 | 0.00 | 0.00 | 54 | 1018.5 |
| 20260831143849 | 86 | 206 | 4.0 | 6.0 | 0.00 | 0.00 | 0.00 | 53 | 1018.5 |
| 20260831143349 | 86 | 265 | 2.0 | 4.0 | 0.00 | 0.00 | 0.00 | 54 | 1018.5 |
| 20260831142848 | 85 | 243 | 5.0 | 8.0 | 0.00 | 0.00 | 0.00 | 54 | 1018.5 |
| 20260831142348 | 85 | 213 | 4.0 | 6.0 | 0.00 | 0.00 | 0.00 | 54 | 1018.5 |
| 20260831141849 | 84 | 227 | 4.0 | 6.0 | 0.00 | 0.00 | 0.00 | 56 | 1018.5 |
| 20260831141350 | 84 | 213 | 6.0 | 10.0 | 0.00 | 0.00 | 0.00 | 55 | 1018.4 |
| 20260831140848 | 83 | 195 | 7.0 | 11.0 | 0.00 | 0.00 | 0.00 | 56 | 1018.4 |
| 20260831140349 | 83 | 202 | 6.0 | 9.0 | 0.00 | 0.00 | 0.00 | 57 | 1018.4 |
| 20260831135848 | 83 | 195 | 6.0 | 9.0 | 0.00 | 0.00 | 0.00 | 57 | 1018.4 |
| 20260831135348 | 83 | 203 | 6.0 | 10.0 | 0.00 | 0.00 | 0.00 | 57 | 1018.4 |
| 20260831134848 | 82 | 223 | 5.0 | 8.0 | 0.00 | 0.00 | 0.00 | 58 | 1018.4 |
| 20260831134348 | 82 | 224 | 6.0 | 9.0 | 0.00 | 0.00 | 0.00 | 58 | 1018.3 |
| 20260831133848 | 81 | 220 | 6.0 | 9.0 | 0.00 | 0.00 | 0.00 | 59 | 1018.3 |
| 20260831133348 | 81 | 173 | 4.0 | 6.0 | 0.00 | 0.00 | 0.00 | 59 | 1018.3 |
| 20260831132849 | 80 | 189 | 2.0 | 3.0 | 0.00 | 0.00 | 0.00 | 60 | 1018.3 |
| 20260831132351 | 80 | 173 | 4.0 | 5.0 | 0.00 | 0.00 | 0.00 | 60 | 1018.3 |
| 20260831131848 | 79 | 172 | 3.0 | 5.0 | 0.00 | 0.00 | 0.00 | 61 | 1018.2 |
| 20260831131348 | 79 | 175 | 3.0 | 4.0 | 0.00 | 0.00 | 0.00 | 62 | 1018.2 |
| 20260831130849 | 78 | 127 | 1.0 | 3.0 | 0.00 | 0.00 | 0.00 | 62 | 1018.2 |
| 20260831130348 | 78 | 203 | 3.0 | 5.0 | 0.00 | 0.00 | 0.00 | 63 | 1018.2 |
| 20260831125849 | 77 | 179 | 2.0 | 4.0 | 0.00 | 0.00 | 0.00 | 63 | 1018.1 |
| 20260831125348 | 77 | 210 | 2.0 | 3.0 | 0.00 | 0.00 | 0.00 | 64 | 1018.1 |
| 20260831124848 | 76 | 184 | 2.0 | 3.0 | 0.00 | 0.00 | 0.00 | 65 | 1018.0 |
| 20260831124348 | 76 | 230 | 1.0 | 3.0 | 0.00 | 0.00 | 0.00 | 65 | 1018.0 |
| 20260831123849 | 75 | 208 | 1.0 | 4.0 | 0.00 | 0.00 | 0.00 | 66 | 1017.9 |
| 20260831123348 | 75 | 183 | 1.0 | 2.0 | 0.00 | 0.00 | 0.00 | 67 | 1017.7 |
| 20260831122849 | 75 | 94 | 1.0 | 1.0 | 0.00 | 0.00 | 0.00 | 67 | 1017.7 |
| 20260831122348 | 74 | 129 | 2.0 | 2.0 | 0.00 | 0.00 | 0.00 | 68 | 1017.7 |
| 20260831121850 | 74 | 145 | 2.0 | 3.0 | 0.00 | 0.00 | 0.00 | 67 | 1017.7 |
| 20260831121348 | 74 | 360 | 0.0 | 0.0 | 0.00 | 0.00 | 0.00 | 68 | 1017.6 |
| 20260831120849 | 74 | 134 | 1.0 | 2.0 | 0.00 | 0.00 | 0.00 | 68 | 1017.6 |
| 20260831120349 | 74 | 280 | 0.0 | 0.0 | 0.00 | 0.00 | 0.00 | 69 | 1017.5 |
| 20260831115848 | 73 | 100 | 2.0 | 2.0 | 0.00 | 0.00 | 0.00 | 69 | 1017.4 |
| 20260831115349 | 73 | 130 | 3.0 | 4.0 | 0.00 | 0.00 | 0.00 | 70 | 1017.3 |
| 20260831114849 | 73 | 147 | 1.0 | 2.0 | 0.00 | 0.00 | 0.00 | 70 | 1017.2 |
| 20260831114351 | 73 | 89 | 1.0 | 2.0 | 0.00 | 0.00 | 0.00 | 70 | 1017.2 |
| 20260831113848 | 73 | 75 | 1.0 | 1.0 | 0.00 | 0.00 | 0.00 | 71 | 1017.1 |
| 20260831113348 | 73 | 98 | 0.0 | 0.0 | 0.00 | 0.00 | 0.00 | 70 | 1017.0 |
| 20260831112849 | 74 | 239 | 0.0 | 0.0 | 0.00 | 0.00 | 0.00 | 69 | 1017.0 |
| 20260831112348 | 74 | 61 | 2.0 | 2.0 | 0.00 | 0.00 | 0.00 | 68 | 1016.9 |
| 20260831111848 | 74 | 195 | 1.0 | 2.0 | 0.00 | 0.00 | 0.00 | 68 | 1017.0 |
| 20260831111348 | 74 | 100 | 2.0 | 2.0 | 0.00 | 0.00 | 0.00 | 68 | 1016.9 |
| 20260831110848 | 74 | 124 | 1.0 | 2.0 | 0.00 | 0.00 | 0.00 | 68 | 1016.9 |
| 20260831110348 | 74 | 91 | 1.0 | 2.0 | 0.00 | 0.00 | 0.00 | 67 | 1016.9 |
| 20260831105848 | 74 | 98 | 2.0 | 2.0 | 0.00 | 0.00 | 0.00 | 67 | 1016.9 |
| 20260831105348 | 74 | 119 | 2.0 | 2.0 | 0.00 | 0.00 | 0.00 | 67 | 1016.8 |
| 20260831104849 | 74 | 124 | 2.0 | 3.0 | 0.00 | 0.00 | 0.00 | 67 | 1016.8 |
| 20260831104348 | 74 | 105 | 2.0 | 2.0 | 0.00 | 0.00 | 0.00 | 67 | 1016.7 |
| 20260831103849 | 74 | 104 | 2.0 | 3.0 | 0.00 | 0.00 | 0.00 | 67 | 1016.7 |
| 20260831103349 | 74 | 121 | 2.0 | 3.0 | 0.00 | 0.00 | 0.00 | 67 | 1016.7 |
| 20260831102849 | 74 | 128 | 2.0 | 2.0 | 0.00 | 0.00 | 0.00 | 66 | 1016.7 |
| 20260831102348 | 74 | 122 | 3.0 | 4.0 | 0.00 | 0.00 | 0.00 | 67 | 1016.7 |
| 20260831101848 | 75 | 143 | 2.0 | 2.0 | 0.00 | 0.00 | 0.00 | 66 | 1016.7 |
| 20260831101349 | 75 | 150 | 3.0 | 4.0 | 0.00 | 0.00 | 0.00 | 66 | 1016.7 |
| 20260831100848 | 75 | 145 | 1.0 | 2.0 | 0.00 | 0.00 | 0.00 | 66 | 1016.7 |
| 20260831100348 | 75 | 118 | 2.0 | 3.0 | 0.00 | 0.00 | 0.00 | 66 | 1016.5 |
| 20260831095848 | 75 | 133 | 1.0 | 2.0 | 0.00 | 0.00 | 0.00 | 66 | 1016.5 |
| 20260831095348 | 75 | 114 | 1.0 | 2.0 | 0.00 | 0.00 | 0.00 | 66 | 1016.7 |
| 20260831094848 | 75 | 119 | 3.0 | 4.0 | 0.00 | 0.00 | 0.00 | 66 | 1016.5 |
| 20260831094348 | 75 | 118 | 2.0 | 2.0 | 0.00 | 0.00 | 0.00 | 66 | 1016.7 |
| 20260831093849 | 75 | 130 | 2.0 | 3.0 | 0.00 | 0.00 | 0.00 | 66 | 1016.7 |
| 20260831093349 | 75 | 127 | 3.0 | 3.0 | 0.00 | 0.00 | 0.00 | 66 | 1016.5 |
| 20260831092849 | 75 | 128 | 2.0 | 3.0 | 0.00 | 0.00 | 0.00 | 66 | 1016.7 |
| 20260831092348 | 75 | 138 | 2.0 | 3.0 | 0.00 | 0.00 | 0.00 | 66 | 1016.7 |
| 20260831091853 | 75 | 121 | 1.0 | 2.0 | 0.00 | 0.00 | 0.00 | 66 | 1016.7 |
| 20260831091348 | 75 | 182 | 2.0 | 3.0 | 0.00 | 0.00 | 0.00 | 67 | 1016.5 |
| 20260831090849 | 75 | 109 | 1.0 | 2.0 | 0.00 | 0.00 | 0.00 | 66 | 1016.5 |
| 20260831090348 | 75 | 126 | 2.0 | 3.0 | 0.00 | 0.00 | 0.00 | 66 | 1016.5 |
| 20260831085848 | 75 | 121 | 2.0 | 3.0 | 0.00 | 0.00 | 0.00 | 66 | 1016.5 |
| 20260831085348 | 75 | 108 | 1.0 | 2.0 | 0.00 | 0.00 | 0.00 | 67 | 1016.5 |
| 20260831084848 | 75 | 87 | 2.0 | 2.0 | 0.00 | 0.00 | 0.00 | 66 | 1016.5 |
| 20260831084350 | 75 | 87 | 0.0 | 1.0 | 0.00 | 0.00 | 0.00 | 66 | 1016.5 |
| 20260831083849 | 75 | 101 | 2.0 | 2.0 | 0.00 | 0.00 | 0.00 | 66 | 1016.5 |
| 20260831083349 | 76 | 137 | 1.0 | 2.0 | 0.00 | 0.00 | 0.00 | 65 | 1016.5 |
| 20260831082849 | 76 | 67 | 1.0 | 1.0 | 0.00 | 0.00 | 0.00 | 65 | 1016.4 |
| 20260831082348 | 76 | 118 | 2.0 | 2.0 | 0.00 | 0.00 | 0.00 | 64 | 1016.4 |
| 20260831081849 | 76 | 116 | 2.0 | 2.0 | 0.00 | 0.00 | 0.00 | 64 | 1016.4 |
| 20260831081348 | 76 | 128 | 2.0 | 3.0 | 0.00 | 0.00 | 0.00 | 64 | 1016.3 |
| 20260831080848 | 76 | 116 | 2.0 | 3.0 | 0.00 | 0.00 | 0.00 | 64 | 1016.3 |
| 20260831080348 | 76 | 133 | 2.0 | 2.0 | 0.00 | 0.00 | 0.00 | 63 | 1016.3 |
| 20260831075848 | 76 | 146 | 2.0 | 4.0 | 0.00 | 0.00 | 0.00 | 63 | 1016.2 |
| 20260831075348 | 77 | 138 | 2.0 | 5.0 | 0.00 | 0.00 | 0.00 | 64 | 1016.2 |
| 20260831074848 | 77 | 130 | 1.0 | 2.0 | 0.00 | 0.00 | 0.00 | 63 | 1016.2 |
| 20260831074348 | 77 | 147 | 3.0 | 5.0 | 0.00 | 0.00 | 0.00 | 63 | 1016.1 |
| 20260831073848 | 77 | 164 | 3.0 | 4.0 | 0.00 | 0.00 | 0.00 | 63 | 1016.1 |
| 20260831073348 | 77 | 146 | 3.0 | 5.0 | 0.00 | 0.00 | 0.00 | 63 | 1016.2 |
| 20260831072849 | 77 | 162 | 1.0 | 2.0 | 0.00 | 0.00 | 0.00 | 63 | 1016.2 |
| 20260831072348 | 77 | 174 | 2.0 | 3.0 | 0.00 | 0.00 | 0.00 | 63 | 1016.3 |
| 20260831071849 | 77 | 144 | 3.0 | 4.0 | 0.00 | 0.00 | 0.00 | 62 | 1016.3 |
| 20260831071348 | 78 | 142 | 3.0 | 6.0 | 0.00 | 0.00 | 0.00 | 62 | 1016.3 |
| 20260831070849 | 77 | 142 | 6.0 | 8.0 | 0.00 | 0.00 | 0.00 | 62 | 1016.2 |
| 20260831070350 | 78 | 132 | 4.0 | 5.0 | 0.00 | 0.00 | 0.00 | 62 | 1016.3 |
| 20260831065848 | 78 | 130 | 4.0 | 6.0 | 0.00 | 0.00 | 0.00 | 62 | 1016.3 |
| 20260831065349 | 78 | 132 | 3.0 | 6.0 | 0.00 | 0.00 | 0.00 | 62 | 1016.3 |
| 20260831064849 | 78 | 135 | 3.0 | 6.0 | 0.00 | 0.00 | 0.00 | 62 | 1016.3 |
| 20260831064348 | 78 | 127 | 3.0 | 4.0 | 0.00 | 0.00 | 0.00 | 62 | 1016.4 |
| 20260831063848 | 78 | 129 | 3.0 | 4.0 | 0.00 | 0.00 | 0.00 | 61 | 1016.3 |
| 20260831063349 | 79 | 134 | 4.0 | 6.0 | 0.00 | 0.00 | 0.00 | 61 | 1016.3 |
| 20260831062848 | 79 | 125 | 3.0 | 4.0 | 0.00 | 0.00 | 0.00 | 60 | 1016.3 |
| 20260831062349 | 79 | 134 | 4.0 | 5.0 | 0.00 | 0.00 | 0.00 | 60 | 1016.3 |
| 20260831061848 | 80 | 133 | 4.0 | 6.0 | 0.00 | 0.00 | 0.00 | 59 | 1016.3 |
| 20260831061349 | 80 | 141 | 4.0 | 6.0 | 0.00 | 0.00 | 0.00 | 59 | 1016.3 |
| 20260831060848 | 80 | 129 | 4.0 | 7.0 | 0.00 | 0.00 | 0.00 | 59 | 1016.4 |
| 20260831060348 | 80 | 143 | 3.0 | 5.0 | 0.00 | 0.00 | 0.00 | 59 | 1016.4 |
| 20260831055848 | 80 | 138 | 3.0 | 4.0 | 0.00 | 0.00 | 0.00 | 59 | 1016.4 |
| 20260831055348 | 80 | 170 | 5.0 | 7.0 | 0.00 | 0.00 | 0.00 | 59 | 1016.4 |